User: anonymous   Login
Location: Ar Ranvel
(48.3000°N, 4.8833°W)
Time: 22:25:09
(UTC+00:00)
Language:

Cosmos 1455 Rocket - Orbit

View from above orbital plane
View from above orbital plane
View from above satellite
View from above satellite

Ground track
Ground track

The orbit data is extracted from the following two-line orbital elements,

1 14033U 83037B   21266.89112749  .00000105  00000-0  96860-5 0  9990
2 14033  82.5079 322.6532 0018074  15.2426 344.9330 14.83869437689795
Epoch (UTC): 23 September 2021 21:23:13
Eccentricity: 0.0018074
inclination: 82.5079°
perigee height: 604 km
apogee height: 630 km
right ascension of ascending node: 322.6532°
argument of perigee: 15.2426°
revolutions per day: 14.83869437
mean anomaly at epoch: 344.9330°
orbit number at epoch: 68979

The dashed part of the orbit path shows where the satellite is in the earth's shadow,  

DLR